Theta_e
348 351 351 352 353 353 354 353 354 352 353 351 351 350 350 351 350 346 352 352 352 351 351 350 349 349 348 347 347 348 348 348 346 344 346 343 344 348 343 344 343 346 347
346 351 349 350 351 352 348 346 347 353 353 352 353 350 350 349 352 351 352 352 352 351 351 350 351 350 348 349 348 348 349 348 350 350 348 348 348 348 347 344 343 346 349
346 351 350 348 351 351 353 354 353 352 350 352 352 352 353 351 348 353 353 353 353 351 351 351 352 351 350 349 348 349 349 342 346 345 344 343 342 347 342 348 349 349 350
346 347 347 349 350 351 352 352 353 352 352 353 353 351 350 352 353 351 348 353 352 351 352 353 351 351 350 350 349 352 346 340 346 347 349 343 345 348 348 351 350 349 348
345 345 348 348 351 350 352 351 351 350 350 351 351 352 351 349 349 352 351 348 352 352 350 353 351 351 351 351 352 352 341 345 346 348 343 345 345 348 351 340 347 350 347
344 346 347 351 352 351 351 351 351 349 349 349 352 353 352 352 350 351 352 352 351 351 350 352 352 352 352 353 352 350 339 345 348 343 343 346 347 348 351 351 346 347 346
346 347 347 351 352 352 352 351 351 350 349 348 349 352 352 352 351 348 352 352 352 353 353 350 351 353 353 353 352 346 342 346 350 344 341 349 348 344 352 346 345 350 350
344 344 348 349 352 352 352 352 352 351 349 348 347 348 351 351 350 347 350 351 348 350 348 353 352 352 352 353 353 345 339 344 344 341 342 348 338 350 353 349 347 350 348
342 344 345 346 349 351 354 353 352 352 350 350 345 341 344 348 347 350 346 350 352 347 349 351 349 352 350 352 350 344 342 348 349 342 340 344 334 347 349 348 349 350 350
342 344 343 346 346 349 352 346 347 349 347 349 349 343 334 343 340 342 344 350 350 351 351 347 350 351 350 352 349 347 343 342 349 344 343 344 336 341 353 348 339 346 350
343 344 344 345 347 349 350 351 347 349 348 346 345 348 345 348 349 349 348 344 348 351 351 350 350 351 350 350 348 345 342 346 345 343 346 346 344 335 343 353 348 344 348
343 344 344 345 346 346 347 349 352 353 351 347 346 346 347 347 350 347 347 343 340 345 347 351 349 348 345 346 347 341 345 344 341 343 345 346 343 342 337 349 350 347 341
343 344 345 347 346 346 347 346 348 350 347 347 341 348 348 349 350 349 348 349 350 346 348 349 349 348 346 347 347 349 347 343 343 343 342 341 339 340 342 343 344 349 345
344 345 346 347 347 347 347 343 345 347 347 345 345 348 349 350 350 350 348 349 349 348 347 348 347 347 350 351 348 346 346 345 345 345 345 344 342 339 339 342 345 344 346
346 347 347 348 349 348 348 346 345 345 349 348 347 348 350 349 346 352 349 348 349 349 349 348 348 348 350 351 350 349 347 345 345 346 347 347 345 344 337 339 345 345 345
347 348 349 350 351 350 349 348 347 347 350 350 346 348 344 344 345 344 347 350 351 350 351 352 353 351 353 352 352 349 349 349 347 346 347 348 347 344 336 337 341 343 345
349 350 349 349 350 351 349 350 348 348 352 352 346 342 344 344 343 343 345 349 351 353 350 352 353 353 354 352 352 352 350 349 348 348 349 348 349 349 343 342 343 344 344
350 351 351 348 349 350 348 349 349 351 352 353 351 349 349 346 348 353 347 350 352 345 350 352 352 349 353 352 353 352 352 350 349 348 349 349 349 351 350 348 345 343 343
354 352 353 349 349 350 349 350 349 351 351 352 353 352 351 354 352 351 353 354 352 353 353 353 351 353 350 352 353 352 352 351 350 349 348 348 348 348 350 351 349 348 346
356 352 353 352 350 352 352 353 351 351 351 350 351 349 354 355 354 354 354 353 353 352 351 353 353 353 353 352 350 349 352 352 352 352 351 349 348 349 349 350 350 351 351
353 355 354 352 352 353 354 353 352 352 351 351 350 352 355 353 355 354 352 356 355 352 354 353 352 355 353 352 351 352 351 352 353 353 353 352 350 350 349 350 350 351 353
351 354 354 353 354 355 354 353 352 351 349 351 351 352 354 356 355 356 357 354 355 352 353 354 355 351 347 346 349 350 354 354 351 352 353 353 352 352 350 351 351 353 355
351 354 356 356 356 356 355 355 355 355 354 353 351 352 353 353 355 356 357 357 356 357 352 354 356 355 349 347 348 349 350 357 350 349 352 352 353 352 352 352 352 354 356
351 353 355 358 358 358 357 356 355 356 353 354 355 353 354 355 355 355 356 358 357 356 355 355 354 353 354 353 352 349 351 349 349 355 351 348 353 355 352 352 351 354 354
352 354 356 359 359 359 359 358 357 357 353 354 355 355 356 355 357 356 356 356 355 356 357 356 356 354 352 353 353 354 353 353 352 351 351 350 352 346 350 352 351 350 355
352 354 355 359 358 358 358 358 358 357 354 352 355 357 356 354 354 355 355 355 356 356 355 355 357 356 357 355 353 352 352 351 350 352 356 351 352 351 352 350 347 350 351
Wind_Speed
19 16 17 15 14 14 15 15 15 14 13 12 12 11 10 9 10 11 13 14 15 16 18 17 15 17 18 18 17 17 17 18 20 20 18 18 18 16 14 14 18 15 14
22 18 18 15 14 13 15 14 14 14 14 13 11 10 9 9 9 9 10 11 12 14 14 14 14 15 15 16 15 15 15 15 18 21 20 18 16 16 17 16 17 15 16
23 20 18 14 14 13 13 13 14 14 13 12 11 10 9 8 9 9 9 9 12 12 13 13 14 15 14 14 14 14 13 14 15 18 24 18 15 15 15 16 17 15 15
23 20 18 16 14 12 12 12 12 12 11 11 11 9 8 8 9 9 10 11 10 11 12 12 13 13 13 13 13 12 11 11 7 6 9 18 15 14 14 15 15 15 15
21 20 18 17 14 12 11 11 11 11 10 10 10 9 8 8 7 9 9 10 8 11 10 11 11 12 12 12 11 11 12 13 8 6 14 14 13 11 12 14 14 12 14
21 21 19 16 14 11 11 10 10 9 9 9 10 10 9 7 7 7 8 8 9 9 10 10 11 11 11 11 10 9 11 9 3 8 10 9 14 11 10 13 13 13 14
22 18 17 15 13 10 9 9 8 8 8 8 8 9 9 8 7 7 7 6 7 7 9 10 9 10 10 11 9 8 11 5 2 6 7 15 11 11 10 10 12 11 11
19 17 14 13 11 10 8 7 7 6 6 6 6 7 8 8 7 7 6 6 6 6 8 8 8 9 9 8 8 7 9 4 2 3 4 12 9 10 9 9 11 10 10
16 17 13 11 10 9 7 5 4 4 4 4 4 4 4 4 6 5 5 6 5 4 6 6 7 8 8 7 6 5 5 4 3 7 7 8 8 9 7 7 8 9 9
13 12 14 12 10 9 10 7 4 3 2 1 2 3 2 2 3 4 4 4 4 5 4 5 6 6 8 7 6 6 4 7 8 7 3 9 4 7 8 6 6 8 9
11 9 12 14 9 4 4 6 2 4 2 1 1 2 3 5 2 0 3 2 4 4 5 5 5 5 7 8 9 9 8 9 12 7 3 8 5 8 9 8 8 8 8
12 11 7 9 10 7 7 4 4 6 6 2 1 3 2 0 1 2 2 3 5 7 7 8 8 8 8 12 12 12 11 11 11 9 7 6 5 8 11 11 10 10 10
13 13 9 4 6 8 5 3 9 12 4 2 1 3 5 4 3 3 5 3 5 6 9 10 9 8 11 12 5 13 12 12 11 11 9 9 8 10 11 13 13 13 11
13 12 11 11 7 5 3 5 4 6 4 3 2 2 2 2 2 3 1 2 4 2 5 7 5 9 8 8 9 11 10 10 11 11 8 13 11 13 14 13 16 15 14
13 12 9 11 9 8 6 3 2 2 2 3 0 3 5 6 4 3 3 2 3 3 5 6 9 9 8 11 12 14 12 12 11 11 8 8 10 10 16 15 15 16 15
9 11 12 10 10 9 7 5 4 4 6 4 2 0 2 2 1 4 4 3 3 3 6 4 6 7 7 9 12 14 13 14 13 11 11 12 12 8 13 15 15 16 16
10 11 11 11 12 10 8 7 7 8 9 6 2 3 1 3 3 5 7 3 2 2 4 4 5 6 6 7 10 13 13 15 14 10 10 14 14 10 11 13 14 15 17
14 7 8 11 12 12 10 8 9 4 6 7 5 7 4 5 8 8 8 7 5 5 3 5 5 2 5 4 7 9 13 15 13 11 12 14 16 13 17 14 12 14 16
13 10 10 10 11 11 10 9 8 9 8 8 10 14 6 4 6 12 10 8 5 6 3 5 6 4 5 7 4 7 10 13 10 13 12 13 14 13 13 15 12 14 15
14 12 10 12 12 11 9 9 10 9 10 9 10 7 8 10 7 8 12 5 5 9 5 4 5 6 8 7 7 11 11 15 14 15 12 15 16 13 15 11 15 16 16
15 12 13 13 14 13 11 10 9 8 8 8 8 8 4 6 7 8 11 11 6 6 6 5 9 9 7 9 6 10 14 12 9 12 13 12 14 18 17 18 14 17 20
15 14 14 13 13 13 11 10 8 9 9 9 7 7 6 6 8 9 10 11 8 8 9 7 7 9 10 8 6 9 6 8 2 6 12 16 17 17 18 17 18 18 15
13 14 14 13 12 12 11 9 8 9 8 7 9 9 11 8 8 10 10 12 8 9 11 9 9 10 11 10 7 7 5 1 7 12 10 12 11 16 16 16 15 16 15
11 14 13 13 12 12 12 12 10 9 8 9 8 8 3 5 9 11 12 12 12 12 11 12 14 12 9 13 16 12 10 10 7 5 13 10 4 8 12 12 12 15 15
10 11 12 11 13 11 13 12 9 11 10 8 9 11 7 12 12 14 14 14 14 14 15 14 12 12 12 13 15 13 11 8 12 12 9 7 5 1 17 12 9 10 18
8 9 11 10 11 11 10 10 9 4 5 7 5 7 12 13 11 9 7 13 14 16 16 12 12 12 13 16 16 16 12 9 11 13 5 13 18 8 17 19 12 12 13
Wind_Direction
134 136 128 119 113 109 105 102 97 98 100 105 109 104 93 81 77 80 84 87 88 92 90 104 98 93 94 99 98 95 95 93 97 113 105 103 106 101 99 115 104 99 99
133 136 128 126 115 110 106 102 100 96 92 101 100 94 87 82 79 80 89 96 93 94 99 100 99 103 103 102 99 97 98 106 114 119 115 106 102 91 93 102 101 105 98
134 136 133 132 120 115 110 96 101 97 94 93 93 91 90 86 78 78 99 102 101 99 103 104 107 110 110 108 105 101 103 113 119 122 106 94 94 101 105 98 97 97 98
134 138 137 138 126 119 111 105 99 97 96 92 89 89 86 80 78 86 107 100 101 106 107 110 111 111 111 108 108 109 114 121 108 137 178 100 99 100 99 102 103 105 107
138 136 142 136 129 124 115 108 101 97 93 89 83 74 79 79 83 85 85 97 94 111 108 108 114 116 114 114 113 119 120 111 120 91 108 108 102 105 110 102 100 105 111
139 132 145 141 134 132 122 115 110 102 93 87 81 69 76 78 79 88 88 91 100 111 116 116 119 124 124 126 120 123 129 117 74 100 84 100 104 117 114 113 115 109 108
132 132 144 143 140 138 131 130 122 113 99 85 77 73 71 80 88 97 83 108 102 107 124 123 126 126 133 132 128 129 134 94 323 99 125 119 115 124 125 124 121 117 114
126 138 147 150 146 145 145 143 132 118 107 93 79 72 73 80 88 97 93 88 108 105 113 128 138 140 139 138 140 134 140 123 101 123 111 99 126 135 133 128 127 128 127
128 139 150 155 155 152 159 153 136 128 101 89 78 71 75 87 96 103 111 108 102 111 129 128 140 149 156 157 166 161 174 176 202 133 169 149 134 142 145 150 149 145 139
133 137 149 155 160 181 177 158 166 179 151 125 45 48 41 141 113 95 121 125 118 126 123 145 153 171 177 183 194 200 214 204 255 159 189 135 128 164 165 168 166 168 165
151 166 165 155 162 179 154 164 143 189 191 218 155 317 17 283 178 246 163 179 171 166 169 169 174 188 203 210 217 221 226 241 226 195 191 151 205 200 186 192 208 193 189
169 167 199 155 158 169 199 125 189 191 196 241 249 294 293 342 307 216 217 259 209 201 204 196 200 212 222 229 218 221 228 247 276 234 183 198 223 216 207 201 209 213 211
174 165 185 204 171 173 133 225 196 154 182 283 255 282 266 258 228 211 252 227 195 212 230 212 212 216 226 264 222 221 234 238 237 239 239 210 230 236 224 221 220 219 226
172 168 187 172 183 246 167 191 173 170 120 168 189 272 277 271 356 349 51 151 236 211 254 237 235 256 261 266 261 253 260 254 259 261 258 228 239 245 236 233 227 226 233
169 170 173 172 189 196 219 225 251 235 89 145 121 326 338 1 18 326 337 252 254 239 243 249 248 249 244 251 250 249 253 258 256 258 268 252 233 251 237 235 228 232 237
167 166 167 187 185 193 201 213 231 208 174 196 250 46 327 288 304 316 323 314 228 236 248 271 261 257 251 252 246 248 248 257 247 247 264 244 244 250 233 231 224 235 243
182 177 165 186 188 193 197 202 211 221 150 168 152 128 88 267 242 273 281 295 327 283 296 261 246 243 248 250 260 248 241 241 249 232 248 252 220 238 225 228 234 236 238
137 159 193 188 186 188 193 195 223 225 212 192 220 214 235 257 246 259 259 249 246 277 274 281 238 225 271 252 267 254 270 259 224 232 225 234 246 224 240 224 230 235 240
145 163 195 192 193 178 189 200 221 208 211 208 221 208 199 219 213 236 229 236 223 258 292 292 329 327 316 272 254 264 263 272 278 255 244 235 237 239 231 228 234 237 244
153 173 196 192 192 188 185 205 232 215 229 209 218 221 167 233 197 221 231 217 238 238 258 276 309 301 279 290 289 292 277 256 239 238 243 246 249 235 240 236 224 229 249
164 179 192 197 188 190 195 200 219 253 266 223 218 204 205 238 233 232 262 218 221 278 206 255 268 247 280 248 232 290 264 241 241 247 238 238 245 244 238 239 243 251 253
181 187 197 197 191 200 199 215 221 225 230 218 229 214 232 222 235 240 245 270 226 258 249 247 261 296 279 257 270 278 300 189 233 269 233 227 229 236 240 230 233 232 252
182 185 192 197 198 208 225 212 210 256 253 247 236 238 224 229 249 256 262 255 263 249 261 256 241 251 276 290 261 286 288 272 296 236 218 238 241 230 223 227 235 241 237
189 184 193 199 204 206 213 226 225 251 252 301 307 235 234 275 269 271 268 261 266 257 260 254 251 249 279 291 306 286 250 319 294 311 245 255 210 288 234 231 249 227 230
184 167 186 198 200 212 213 236 228 230 248 257 280 316 291 267 257 261 263 267 269 264 257 251 270 274 268 260 269 300 299 276 264 274 283 291 173 333 284 239 244 234 219
173 186 184 183 202 210 214 219 238 259 280 291 273 291 272 270 257 224 264 262 265 270 278 278 268 266 256 256 262 271 267 259 276 258 275 283 297 215 206 222 241 220 230